owner,sensor,date,latitude,longitude,vertical_datum,direction_of_sea_water_velocity,sea_water_speed,upward_sea_water_velocity,qcFlag 
WAVCIS,ioos:station:WAVCIS:CSI16:1,2010-11-01T00:00:00Z,29.4012,-89.0355,10.36,270.0,0.126,-99999.0,'11133222,11111222,99999999' 
WAVCIS,ioos:station:WAVCIS:CSI16:1,2010-11-01T01:00:00Z,29.4012,-89.0355,10.36,295.0,0.233,-99999.0,'11133222,11111222,99999999' 
WAVCIS,ioos:station:WAVCIS:CSI16:1,2010-11-01T02:00:00Z,29.4012,-89.0355,10.86,312.0,0.285,-99999.0,'11133222,11111222,99999999' 
WAVCIS,ioos:station:WAVCIS:CSI16:1,2010-11-01T03:00:00Z,29.4012,-89.0355,10.86,324.0,0.211,-99999.0,'11133222,11111222,99999999' 
WAVCIS,ioos:station:WAVCIS:CSI16:1,2010-11-01T04:00:00Z,29.4012,-89.0355,10.86,329.0,0.153,-99999.0,'11133222,11111222,99999999' 
WAVCIS,ioos:station:WAVCIS:CSI16:1,2010-11-01T05:00:00Z,29.4012,-89.0355,10.86,349.0,0.165,-99999.0,'11133222,11111222,99999999' 
WAVCIS,ioos:station:WAVCIS:CSI16:1,2010-11-01T06:00:00Z,29.4012,-89.0355,10.86,15.0,0.163,-99999.0,'11133222,11111222,99999999' 
WAVCIS,ioos:station:WAVCIS:CSI16:1,2010-11-01T07:00:00Z,29.4012,-89.0355,10.86,29.0,0.134,-99999.0,'11133222,11111222,99999999' 
WAVCIS,ioos:station:WAVCIS:CSI16:1,2010-11-01T08:00:00Z,29.4012,-89.0355,10.86,41.0,0.139,-99999.0,'11133222,11111222,99999999' 
WAVCIS,ioos:station:WAVCIS:CSI16:1,2010-11-01T09:00:00Z,29.4012,-89.0355,10.86,36.0,0.103,-99999.0,'11133222,11111222,99999999' 
WAVCIS,ioos:station:WAVCIS:CSI16:1,2010-11-01T10:00:00Z,29.4012,-89.0355,10.86,66.0,0.11,-99999.0,'11133222,11111222,99999999' 
WAVCIS,ioos:station:WAVCIS:CSI16:1,2010-11-01T11:00:00Z,29.4012,-89.0355,10.86,75.0,0.187,-99999.0,'11133222,11111222,99999999' 
WAVCIS,ioos:station:WAVCIS:CSI16:1,2010-11-01T12:00:00Z,29.4012,-89.0355,10.86,87.0,0.142,-99999.0,'11133222,11111222,99999999' 
WAVCIS,ioos:station:WAVCIS:CSI16:1,2010-11-01T13:00:00Z,29.4012,-89.0355,10.86,99.0,0.056,-99999.0,'11133222,11111222,99999999' 
WAVCIS,ioos:station:WAVCIS:CSI16:1,2010-11-01T14:00:00Z,29.4012,-89.0355,10.86,116.0,0.055,-99999.0,'11133222,11111222,99999999' 
WAVCIS,ioos:station:WAVCIS:CSI16:1,2010-11-01T15:00:00Z,29.4012,-89.0355,10.86,113.0,0.088,-99999.0,'11133222,11111222,99999999' 
WAVCIS,ioos:station:WAVCIS:CSI16:1,2010-11-01T16:00:00Z,29.4012,-89.0355,10.86,136.0,0.091,-99999.0,'11133222,11111222,99999999' 
WAVCIS,ioos:station:WAVCIS:CSI16:1,2010-11-01T17:00:00Z,29.4012,-89.0355,10.36,119.0,0.057,-99999.0,'11133222,11111222,99999999' 
WAVCIS,ioos:station:WAVCIS:CSI16:1,2010-11-01T18:00:00Z,29.4012,-89.0355,10.36,117.0,0.04,-99999.0,'11133222,11111222,99999999' 
WAVCIS,ioos:station:WAVCIS:CSI16:1,2010-11-01T19:00:00Z,29.4012,-89.0355,10.36,214.0,0.014,-99999.0,'11133222,11111222,99999999' 
WAVCIS,ioos:station:WAVCIS:CSI16:1,2010-11-01T20:00:00Z,29.4012,-89.0355,10.36,180.0,0.021,-99999.0,'11133222,11111222,99999999' 
WAVCIS,ioos:station:WAVCIS:CSI16:1,2010-11-01T21:00:00Z,29.4012,-89.0355,10.36,274.0,0.013,-99999.0,'11133222,11111222,99999999' 
WAVCIS,ioos:station:WAVCIS:CSI16:1,2010-11-01T22:00:00Z,29.4012,-89.0355,10.36,286.0,0.113,-99999.0,'11133222,11111222,99999999' 
WAVCIS,ioos:station:WAVCIS:CSI16:1,2010-11-01T23:00:00Z,29.4012,-89.0355,10.36,295.0,0.398,-99999.0,'11133222,11111222,99999999' 
WAVCIS,ioos:station:WAVCIS:CSI16:1,2010-11-02T00:00:00Z,29.4012,-89.0355,10.86,310.0,0.242,-99999.0,'11133222,11111222,99999999' 
WAVCIS,ioos:station:WAVCIS:CSI16:1,2010-11-02T01:00:00Z,29.4012,-89.0355,10.86,314.0,0.223,-99999.0,'11133222,11111222,99999999' 
WAVCIS,ioos:station:WAVCIS:CSI16:1,2010-11-02T02:00:00Z,29.4012,-89.0355,10.86,314.0,0.192,-99999.0,'11133222,11111222,99999999' 
WAVCIS,ioos:station:WAVCIS:CSI16:1,2010-11-02T03:00:00Z,29.4012,-89.0355,10.86,335.0,0.097,-99999.0,'11133222,11111222,99999999' 
WAVCIS,ioos:station:WAVCIS:CSI16:1,2010-11-02T04:00:00Z,29.4012,-89.0355,10.86,354.0,0.083,-99999.0,'11133222,11111222,99999999' 
WAVCIS,ioos:station:WAVCIS:CSI16:1,2010-11-02T05:00:00Z,29.4012,-89.0355,10.86,4.0,0.065,-99999.0,'11133222,11111222,99999999' 
WAVCIS,ioos:station:WAVCIS:CSI16:1,2010-11-02T06:00:00Z,29.4012,-89.0355,10.36,38.0,0.079,-99999.0,'11133222,11111222,99999999' 
WAVCIS,ioos:station:WAVCIS:CSI16:1,2010-11-02T07:00:00Z,29.4012,-89.0355,10.36,48.0,0.095,-99999.0,'11133222,11111222,99999999' 
WAVCIS,ioos:station:WAVCIS:CSI16:1,2010-11-02T08:00:00Z,29.4012,-89.0355,10.36,23.0,0.052,-99999.0,'11133222,11111222,99999999' 
WAVCIS,ioos:station:WAVCIS:CSI16:1,2010-11-02T09:00:00Z,29.4012,-89.0355,10.36,352.0,0.035,-99999.0,'11133222,11111222,99999999' 
WAVCIS,ioos:station:WAVCIS:CSI16:1,2010-11-02T10:00:00Z,29.4012,-89.0355,10.36,17.0,0.045,-99999.0,'11133222,11111222,99999999' 
WAVCIS,ioos:station:WAVCIS:CSI16:1,2010-11-02T11:00:00Z,29.4012,-89.0355,10.36,34.0,0.046,-99999.0,'11133222,11111222,99999999' 
WAVCIS,ioos:station:WAVCIS:CSI16:1,2010-11-02T12:00:00Z,29.4012,-89.0355,10.36,32.0,0.074,-99999.0,'11133222,11111222,99999999' 
WAVCIS,ioos:station:WAVCIS:CSI16:1,2010-11-02T13:00:00Z,29.4012,-89.0355,10.36,313.0,0.025,-99999.0,'11133222,11111222,99999999' 
WAVCIS,ioos:station:WAVCIS:CSI16:1,2010-11-02T14:00:00Z,29.4012,-89.0355,10.36,315.0,0.054,-99999.0,'11133222,11111222,99999999' 
WAVCIS,ioos:station:WAVCIS:CSI16:1,2010-11-02T15:00:00Z,29.4012,-89.0355,10.36,312.0,0.027,-99999.0,'11133222,11111222,99999999' 
WAVCIS,ioos:station:WAVCIS:CSI16:1,2010-11-02T16:00:00Z,29.4012,-89.0355,10.36,293.0,0.041,-99999.0,'11133222,11111222,99999999' 
WAVCIS,ioos:station:WAVCIS:CSI16:1,2010-11-02T17:00:00Z,29.4012,-89.0355,10.36,2.0,0.053,-99999.0,'11133222,11111222,99999999' 
WAVCIS,ioos:station:WAVCIS:CSI16:1,2010-11-02T18:00:00Z,29.4012,-89.0355,10.36,227.0,0.021,-99999.0,'11133222,11111222,99999999' 
WAVCIS,ioos:station:WAVCIS:CSI16:1,2010-11-02T19:00:00Z,29.4012,-89.0355,10.36,239.0,0.035,-99999.0,'11133222,11111222,99999999' 
WAVCIS,ioos:station:WAVCIS:CSI16:1,2010-11-02T20:00:00Z,29.4012,-89.0355,10.36,249.0,0.039,-99999.0,'11133222,11111222,99999999' 
WAVCIS,ioos:station:WAVCIS:CSI16:1,2010-11-02T21:00:00Z,29.4012,-89.0355,10.36,241.0,0.025,-99999.0,'11133222,11111222,99999999' 
WAVCIS,ioos:station:WAVCIS:CSI16:1,2010-11-02T22:00:00Z,29.4012,-89.0355,10.36,245.0,0.052,-99999.0,'11133222,11111222,99999999' 
WAVCIS,ioos:station:WAVCIS:CSI16:1,2010-11-02T23:00:00Z,29.4012,-89.0355,10.36,276.0,0.092,-99999.0,'11133222,11111222,99999999' 
WAVCIS,ioos:station:WAVCIS:CSI16:1,2010-11-03T00:00:00Z,29.4012,-89.0355,10.36,301.0,0.095,-99999.0,'11133222,11111222,99999999' 
WAVCIS,ioos:station:WAVCIS:CSI16:1,2010-11-03T01:00:00Z,29.4012,-89.0355,10.36,340.0,0.113,-99999.0,'11133222,11111222,99999999' 
WAVCIS,ioos:station:WAVCIS:CSI16:1,2010-11-03T02:00:00Z,29.4012,-89.0355,10.36,325.0,0.055,-99999.0,'11133222,11111222,99999999' 
WAVCIS,ioos:station:WAVCIS:CSI16:1,2010-11-03T03:00:00Z,29.4012,-89.0355,10.36,284.0,0.037,-99999.0,'11133222,11111222,99999999' 
WAVCIS,ioos:station:WAVCIS:CSI16:1,2010-11-03T04:00:00Z,29.4012,-89.0355,10.36,293.0,0.22,-99999.0,'11133222,11111222,99999999' 
WAVCIS,ioos:station:WAVCIS:CSI16:1,2010-11-03T05:00:00Z,29.4012,-89.0355,10.36,308.0,0.252,-99999.0,'11133222,11111222,99999999' 
WAVCIS,ioos:station:WAVCIS:CSI16:1,2010-11-03T06:00:00Z,29.4012,-89.0355,10.36,316.0,0.217,-99999.0,'11133222,11111222,99999999' 
WAVCIS,ioos:station:WAVCIS:CSI16:1,2010-11-03T07:00:00Z,29.4012,-89.0355,10.36,336.0,0.145,-99999.0,'11133222,11111222,99999999' 
WAVCIS,ioos:station:WAVCIS:CSI16:1,2010-11-03T08:00:00Z,29.4012,-89.0355,10.36,4.0,0.138,-99999.0,'11133222,11111222,99999999' 
WAVCIS,ioos:station:WAVCIS:CSI16:1,2010-11-03T09:00:00Z,29.4012,-89.0355,9.86,37.0,0.158,-99999.0,'11133222,11111222,99999999' 
WAVCIS,ioos:station:WAVCIS:CSI16:1,2010-11-03T10:00:00Z,29.4012,-89.0355,9.86,54.0,0.149,-99999.0,'11133222,11111222,99999999' 
WAVCIS,ioos:station:WAVCIS:CSI16:1,2010-11-03T11:00:00Z,29.4012,-89.0355,9.86,36.0,0.13,-99999.0,'11133222,11111222,99999999' 
WAVCIS,ioos:station:WAVCIS:CSI16:1,2010-11-03T12:00:00Z,29.4012,-89.0355,10.36,12.0,0.114,-99999.0,'11133222,11111222,99999999' 
WAVCIS,ioos:station:WAVCIS:CSI16:1,2010-11-03T13:00:00Z,29.4012,-89.0355,10.36,33.0,0.237,-99999.0,'11133222,11111222,99999999' 
WAVCIS,ioos:station:WAVCIS:CSI16:1,2010-11-03T14:00:00Z,29.4012,-89.0355,10.36,65.0,0.161,-99999.0,'11133222,11111222,99999999' 
WAVCIS,ioos:station:WAVCIS:CSI16:1,2010-11-03T15:00:00Z,29.4012,-89.0355,10.36,56.0,0.206,-99999.0,'11133222,11111222,99999999' 
WAVCIS,ioos:station:WAVCIS:CSI16:1,2010-11-03T16:00:00Z,29.4012,-89.0355,10.36,69.0,0.146,-99999.0,'11133222,11111222,99999999' 
WAVCIS,ioos:station:WAVCIS:CSI16:1,2010-11-03T17:00:00Z,29.4012,-89.0355,10.36,64.0,0.136,-99999.0,'11133222,11111222,99999999' 
WAVCIS,ioos:station:WAVCIS:CSI16:1,2010-11-03T18:00:00Z,29.4012,-89.0355,10.36,54.0,0.161,-99999.0,'11133222,11111222,99999999' 
WAVCIS,ioos:station:WAVCIS:CSI16:1,2010-11-03T19:00:00Z,29.4012,-89.0355,10.36,57.0,0.074,-99999.0,'11133222,11111222,99999999' 
WAVCIS,ioos:station:WAVCIS:CSI16:1,2010-11-03T20:00:00Z,29.4012,-89.0355,10.36,55.0,0.055,-99999.0,'11133222,11111222,99999999' 
WAVCIS,ioos:station:WAVCIS:CSI16:1,2010-11-03T21:00:00Z,29.4012,-89.0355,10.36,93.0,0.082,-99999.0,'11133222,11111222,99999999' 
WAVCIS,ioos:station:WAVCIS:CSI16:1,2010-11-03T22:00:00Z,29.4012,-89.0355,10.36,23.0,0.028,-99999.0,'11133222,11111222,99999999' 
WAVCIS,ioos:station:WAVCIS:CSI16:1,2010-11-03T23:00:00Z,29.4012,-89.0355,10.36,315.0,0.011,-99999.0,'11133222,11111222,99999999' 
WAVCIS,ioos:station:WAVCIS:CSI16:1,2010-11-04T00:00:00Z,29.4012,-89.0355,10.36,252.0,0.028,-99999.0,'11133222,11111222,99999999' 
WAVCIS,ioos:station:WAVCIS:CSI16:1,2010-11-04T01:00:00Z,29.4012,-89.0355,10.36,226.0,0.104,-99999.0,'11133222,11111222,99999999' 
WAVCIS,ioos:station:WAVCIS:CSI16:1,2010-11-04T02:00:00Z,29.4012,-89.0355,10.36,221.0,0.184,-99999.0,'11133222,11111222,99999999' 
WAVCIS,ioos:station:WAVCIS:CSI16:1,2010-11-04T03:00:00Z,29.4012,-89.0355,10.36,222.0,0.173,-99999.0,'11133222,11111222,99999999' 
WAVCIS,ioos:station:WAVCIS:CSI16:1,2010-11-04T04:00:00Z,29.4012,-89.0355,10.36,203.0,0.106,-99999.0,'11133222,11111222,99999999' 
WAVCIS,ioos:station:WAVCIS:CSI16:1,2010-11-04T05:00:00Z,29.4012,-89.0355,10.36,149.0,0.049,-99999.0,'11133222,11111222,99999999' 
WAVCIS,ioos:station:WAVCIS:CSI16:1,2010-11-04T06:00:00Z,29.4012,-89.0355,10.36,152.0,0.154,-99999.0,'11133222,11111222,99999999' 
WAVCIS,ioos:station:WAVCIS:CSI16:1,2010-11-04T07:00:00Z,29.4012,-89.0355,10.36,137.0,0.192,-99999.0,'11133222,11111222,99999999' 
WAVCIS,ioos:station:WAVCIS:CSI16:1,2010-11-04T08:00:00Z,29.4012,-89.0355,10.36,141.0,0.262,-99999.0,'11133222,11111222,99999999' 
WAVCIS,ioos:station:WAVCIS:CSI16:1,2010-11-04T09:00:00Z,29.4012,-89.0355,10.36,149.0,0.367,-99999.0,'11133222,11111222,99999999' 
WAVCIS,ioos:station:WAVCIS:CSI16:1,2010-11-04T10:00:00Z,29.4012,-89.0355,9.86,152.0,0.375,-99999.0,'11133222,11111222,99999999' 
WAVCIS,ioos:station:WAVCIS:CSI16:1,2010-11-04T11:00:00Z,29.4012,-89.0355,9.86,164.0,0.265,-99999.0,'11133222,11111222,99999999' 
WAVCIS,ioos:station:WAVCIS:CSI16:1,2010-11-04T12:00:00Z,29.4012,-89.0355,9.86,177.0,0.265,-99999.0,'11133222,11111222,99999999' 
WAVCIS,ioos:station:WAVCIS:CSI16:1,2010-11-04T13:00:00Z,29.4012,-89.0355,9.86,174.0,0.234,-99999.0,'11133222,11111222,99999999' 
WAVCIS,ioos:station:WAVCIS:CSI16:1,2010-11-04T14:00:00Z,29.4012,-89.0355,9.86,176.0,0.239,-99999.0,'11133222,11111222,99999999' 
WAVCIS,ioos:station:WAVCIS:CSI16:1,2010-11-04T15:00:00Z,29.4012,-89.0355,9.86,185.0,0.283,-99999.0,'11133222,11111222,99999999' 
WAVCIS,ioos:station:WAVCIS:CSI16:1,2010-11-04T16:00:00Z,29.4012,-89.0355,9.86,169.0,0.208,-99999.0,'11133222,11111222,99999999' 
WAVCIS,ioos:station:WAVCIS:CSI16:1,2010-11-04T17:00:00Z,29.4012,-89.0355,9.86,179.0,0.219,-99999.0,'11133222,11111222,99999999' 
WAVCIS,ioos:station:WAVCIS:CSI16:1,2010-11-04T18:00:00Z,29.4012,-89.0355,9.86,185.0,0.243,-99999.0,'11133222,11111222,99999999' 
WAVCIS,ioos:station:WAVCIS:CSI16:1,2010-11-04T19:00:00Z,29.4012,-89.0355,9.86,187.0,0.211,-99999.0,'11133222,11111222,99999999' 
WAVCIS,ioos:station:WAVCIS:CSI16:1,2010-11-04T20:00:00Z,29.4012,-89.0355,10.36,183.0,0.226,-99999.0,'11133222,11111222,99999999' 
WAVCIS,ioos:station:WAVCIS:CSI16:1,2010-11-04T21:00:00Z,29.4012,-89.0355,10.36,177.0,0.287,-99999.0,'11133222,11111222,99999999' 
WAVCIS,ioos:station:WAVCIS:CSI16:1,2010-11-04T22:00:00Z,29.4012,-89.0355,10.36,170.0,0.266,-99999.0,'11133222,11111222,99999999' 
WAVCIS,ioos:station:WAVCIS:CSI16:1,2010-11-04T23:00:00Z,29.4012,-89.0355,10.36,167.0,0.279,-99999.0,'11133222,11111222,99999999' 
WAVCIS,ioos:station:WAVCIS:CSI16:1,2010-11-05T00:00:00Z,29.4012,-89.0355,10.36,161.0,0.283,-99999.0,'11133222,11111222,99999999' 
WAVCIS,ioos:station:WAVCIS:CSI16:1,2010-11-05T01:00:00Z,29.4012,-89.0355,10.36,159.0,0.233,-99999.0,'11133222,11111222,99999999' 
WAVCIS,ioos:station:WAVCIS:CSI16:1,2010-11-05T02:00:00Z,29.4012,-89.0355,10.36,165.0,0.251,-99999.0,'11133222,11111222,99999999' 
WAVCIS,ioos:station:WAVCIS:CSI16:1,2010-11-05T03:00:00Z,29.4012,-89.0355,10.36,162.0,0.246,-99999.0,'11133222,11111222,99999999' 
WAVCIS,ioos:station:WAVCIS:CSI16:1,2010-11-05T04:00:00Z,29.4012,-89.0355,10.36,157.0,0.211,-99999.0,'11133222,11111222,99999999' 
WAVCIS,ioos:station:WAVCIS:CSI16:1,2010-11-05T05:00:00Z,29.4012,-89.0355,10.36,162.0,0.254,-99999.0,'11133222,11111222,99999999' 
WAVCIS,ioos:station:WAVCIS:CSI16:1,2010-11-05T06:00:00Z,29.4012,-89.0355,10.36,165.0,0.274,-99999.0,'11133222,11111222,99999999' 
WAVCIS,ioos:station:WAVCIS:CSI16:1,2010-11-05T07:00:00Z,29.4012,-89.0355,10.36,147.0,0.434,-99999.0,'11133222,11111222,99999999' 
WAVCIS,ioos:station:WAVCIS:CSI16:1,2010-11-05T08:00:00Z,29.4012,-89.0355,10.36,142.0,0.404,-99999.0,'11133222,11111222,99999999' 
WAVCIS,ioos:station:WAVCIS:CSI16:1,2010-11-05T09:00:00Z,29.4012,-89.0355,10.36,140.0,0.344,-99999.0,'11133222,11111222,99999999' 
WAVCIS,ioos:station:WAVCIS:CSI16:1,2010-11-05T10:00:00Z,29.4012,-89.0355,9.86,151.0,0.247,-99999.0,'11133222,11111222,99999999' 
WAVCIS,ioos:station:WAVCIS:CSI16:1,2010-11-05T11:00:00Z,29.4012,-89.0355,9.86,136.0,0.236,-99999.0,'11133222,11111222,99999999' 
WAVCIS,ioos:station:WAVCIS:CSI16:1,2010-11-05T12:00:00Z,29.4012,-89.0355,9.86,151.0,0.179,-99999.0,'11133222,11111222,99999999' 
WAVCIS,ioos:station:WAVCIS:CSI16:1,2010-11-05T13:00:00Z,29.4012,-89.0355,9.86,152.0,0.177,-99999.0,'11133222,11111222,99999999' 
WAVCIS,ioos:station:WAVCIS:CSI16:1,2010-11-05T14:00:00Z,29.4012,-89.0355,10.36,161.0,0.181,-99999.0,'11133222,11111222,99999999' 
WAVCIS,ioos:station:WAVCIS:CSI16:1,2010-11-05T15:00:00Z,29.4012,-89.0355,10.36,164.0,0.16,-99999.0,'11133222,11111222,99999999' 
WAVCIS,ioos:station:WAVCIS:CSI16:1,2010-11-05T16:00:00Z,29.4012,-89.0355,10.36,190.0,0.12,-99999.0,'11133222,11111222,99999999' 
WAVCIS,ioos:station:WAVCIS:CSI16:1,2010-11-05T17:00:00Z,29.4012,-89.0355,10.36,185.0,0.16,-99999.0,'11133222,11111222,99999999' 
WAVCIS,ioos:station:WAVCIS:CSI16:1,2010-11-05T18:00:00Z,29.4012,-89.0355,10.36,194.0,0.095,-99999.0,'11133222,11111222,99999999' 
WAVCIS,ioos:station:WAVCIS:CSI16:1,2010-11-05T19:00:00Z,29.4012,-89.0355,10.36,209.0,0.066,-99999.0,'11133222,11111222,99999999' 
WAVCIS,ioos:station:WAVCIS:CSI16:1,2010-11-05T20:00:00Z,29.4012,-89.0355,10.36,213.0,0.037,-99999.0,'11133222,11111222,99999999' 
WAVCIS,ioos:station:WAVCIS:CSI16:1,2010-11-05T21:00:00Z,29.4012,-89.0355,10.36,294.0,0.03,-99999.0,'11133222,11111222,99999999' 
WAVCIS,ioos:station:WAVCIS:CSI16:1,2010-11-05T22:00:00Z,29.4012,-89.0355,10.36,317.0,0.047,-99999.0,'11133222,11111222,99999999' 
WAVCIS,ioos:station:WAVCIS:CSI16:1,2010-11-05T23:00:00Z,29.4012,-89.0355,10.36,329.0,0.066,-99999.0,'11133222,11111222,99999999' 
WAVCIS,ioos:station:WAVCIS:CSI16:1,2010-11-06T00:00:00Z,29.4012,-89.0355,10.36,294.0,0.055,-99999.0,'11133222,11111222,99999999' 
WAVCIS,ioos:station:WAVCIS:CSI16:1,2010-11-06T01:00:00Z,29.4012,-89.0355,10.36,301.0,0.082,-99999.0,'11133222,11111222,99999999' 
WAVCIS,ioos:station:WAVCIS:CSI16:1,2010-11-06T02:00:00Z,29.4012,-89.0355,10.86,333.0,0.085,-99999.0,'11133222,11111222,99999999' 
WAVCIS,ioos:station:WAVCIS:CSI16:1,2010-11-06T03:00:00Z,29.4012,-89.0355,10.36,355.0,0.108,-99999.0,'11133222,11111222,99999999' 
WAVCIS,ioos:station:WAVCIS:CSI16:1,2010-11-06T04:00:00Z,29.4012,-89.0355,10.36,35.0,0.095,-99999.0,'11133222,11111222,99999999' 
WAVCIS,ioos:station:WAVCIS:CSI16:1,2010-11-06T05:00:00Z,29.4012,-89.0355,10.36,65.0,0.129,-99999.0,'11133222,11111222,99999999' 
WAVCIS,ioos:station:WAVCIS:CSI16:1,2010-11-06T06:00:00Z,29.4012,-89.0355,10.36,87.0,0.187,-99999.0,'11133222,11111222,99999999' 
WAVCIS,ioos:station:WAVCIS:CSI16:1,2010-11-06T07:00:00Z,29.4012,-89.0355,10.36,99.0,0.293,-99999.0,'11133222,11111222,99999999' 
WAVCIS,ioos:station:WAVCIS:CSI16:1,2010-11-06T08:00:00Z,29.4012,-89.0355,10.36,120.0,0.338,-99999.0,'11133222,11111222,99999999' 
WAVCIS,ioos:station:WAVCIS:CSI16:1,2010-11-06T09:00:00Z,29.4012,-89.0355,9.86,148.0,0.203,-99999.0,'11133222,11111222,99999999' 
WAVCIS,ioos:station:WAVCIS:CSI16:1,2010-11-06T10:00:00Z,29.4012,-89.0355,9.86,155.0,0.281,-99999.0,'11133222,11111222,99999999' 
WAVCIS,ioos:station:WAVCIS:CSI16:1,2010-11-06T11:00:00Z,29.4012,-89.0355,9.86,150.0,0.217,-99999.0,'11133222,11111222,99999999' 
WAVCIS,ioos:station:WAVCIS:CSI16:1,2010-11-06T12:00:00Z,29.4012,-89.0355,9.86,150.0,0.362,-99999.0,'11133222,11111222,99999999' 
WAVCIS,ioos:station:WAVCIS:CSI16:1,2010-11-06T13:00:00Z,29.4012,-89.0355,9.86,156.0,0.251,-99999.0,'11133222,11111222,99999999' 
WAVCIS,ioos:station:WAVCIS:CSI16:1,2010-11-06T14:00:00Z,29.4012,-89.0355,9.86,156.0,0.237,-99999.0,'11133222,11111222,99999999' 
WAVCIS,ioos:station:WAVCIS:CSI16:1,2010-11-06T15:00:00Z,29.4012,-89.0355,9.86,157.0,0.244,-99999.0,'11133222,11111222,99999999' 
WAVCIS,ioos:station:WAVCIS:CSI16:1,2010-11-06T16:00:00Z,29.4012,-89.0355,9.86,181.0,0.301,-99999.0,'11133222,11111222,99999999' 
WAVCIS,ioos:station:WAVCIS:CSI16:1,2010-11-06T17:00:00Z,29.4012,-89.0355,10.36,173.0,0.223,-99999.0,'11133222,11111222,99999999' 
WAVCIS,ioos:station:WAVCIS:CSI16:1,2010-11-06T18:00:00Z,29.4012,-89.0355,10.36,188.0,0.128,-99999.0,'11133222,11111222,99999999' 
WAVCIS,ioos:station:WAVCIS:CSI16:1,2010-11-06T19:00:00Z,29.4012,-89.0355,10.36,202.0,0.154,-99999.0,'11133222,11111222,99999999' 
WAVCIS,ioos:station:WAVCIS:CSI16:1,2010-11-06T20:00:00Z,29.4012,-89.0355,10.36,205.0,0.132,-99999.0,'11133222,11111222,99999999' 
WAVCIS,ioos:station:WAVCIS:CSI16:1,2010-11-06T21:00:00Z,29.4012,-89.0355,10.36,236.0,0.145,-99999.0,'11133222,11111222,99999999' 
WAVCIS,ioos:station:WAVCIS:CSI16:1,2010-11-06T22:00:00Z,29.4012,-89.0355,10.36,270.0,0.05,-99999.0,'11133222,11111222,99999999' 
WAVCIS,ioos:station:WAVCIS:CSI16:1,2010-11-06T23:00:00Z,29.4012,-89.0355,10.36,290.0,0.197,-99999.0,'11133222,11111222,99999999' 
WAVCIS,ioos:station:WAVCIS:CSI16:1,2010-11-07T00:00:00Z,29.4012,-89.0355,10.86,4.0,0.093,-99999.0,'11133222,11111222,99999999' 
WAVCIS,ioos:station:WAVCIS:CSI16:1,2010-11-07T01:00:00Z,29.4012,-89.0355,10.86,345.0,0.052,-99999.0,'11133222,11111222,99999999' 
WAVCIS,ioos:station:WAVCIS:CSI16:1,2010-11-07T02:00:00Z,29.4012,-89.0355,10.86,330.0,0.064,-99999.0,'11133222,11111222,99999999' 
WAVCIS,ioos:station:WAVCIS:CSI16:1,2010-11-07T03:00:00Z,29.4012,-89.0355,10.36,353.0,0.081,-99999.0,'11133222,11111222,99999999' 
WAVCIS,ioos:station:WAVCIS:CSI16:1,2010-11-07T04:00:00Z,29.4012,-89.0355,10.36,10.0,0.115,-99999.0,'11133222,11111222,99999999' 
WAVCIS,ioos:station:WAVCIS:CSI16:1,2010-11-07T05:00:00Z,29.4012,-89.0355,10.36,42.0,0.107,-99999.0,'11133222,11111222,99999999' 
WAVCIS,ioos:station:WAVCIS:CSI16:1,2010-11-07T06:00:00Z,29.4012,-89.0355,10.36,88.0,0.127,-99999.0,'11133222,11111222,99999999' 
WAVCIS,ioos:station:WAVCIS:CSI16:1,2010-11-07T07:00:00Z,29.4012,-89.0355,10.36,109.0,0.162,-99999.0,'11133222,11111222,99999999' 
WAVCIS,ioos:station:WAVCIS:CSI16:1,2010-11-07T08:00:00Z,29.4012,-89.0355,9.86,126.0,0.191,-99999.0,'11133222,11111222,99999999' 
WAVCIS,ioos:station:WAVCIS:CSI16:1,2010-11-07T09:00:00Z,29.4012,-89.0355,9.86,157.0,0.178,-99999.0,'11133222,11111222,99999999' 
WAVCIS,ioos:station:WAVCIS:CSI16:1,2010-11-07T10:00:00Z,29.4012,-89.0355,9.86,154.0,0.271,-99999.0,'11133222,11111222,99999999' 
WAVCIS,ioos:station:WAVCIS:CSI16:1,2010-11-07T11:00:00Z,29.4012,-89.0355,9.86,151.0,0.348,-99999.0,'11133222,11111222,99999999' 
WAVCIS,ioos:station:WAVCIS:CSI16:1,2010-11-07T12:00:00Z,29.4012,-89.0355,9.86,152.0,0.349,-99999.0,'11133222,11111222,99999999' 
WAVCIS,ioos:station:WAVCIS:CSI16:1,2010-11-07T13:00:00Z,29.4012,-89.0355,9.86,150.0,0.343,-99999.0,'11133222,11111222,99999999' 
WAVCIS,ioos:station:WAVCIS:CSI16:1,2010-11-07T14:00:00Z,29.4012,-89.0355,9.86,159.0,0.246,-99999.0,'11133222,11111222,99999999' 
WAVCIS,ioos:station:WAVCIS:CSI16:1,2010-11-07T15:00:00Z,29.4012,-89.0355,9.86,173.0,0.237,-99999.0,'11133222,11111222,99999999' 
WAVCIS,ioos:station:WAVCIS:CSI16:1,2010-11-07T16:00:00Z,29.4012,-89.0355,9.86,174.0,0.272,-99999.0,'11133222,11111222,99999999' 
WAVCIS,ioos:station:WAVCIS:CSI16:1,2010-11-07T17:00:00Z,29.4012,-89.0355,10.36,190.0,0.152,-99999.0,'11133222,11111222,99999999' 
WAVCIS,ioos:station:WAVCIS:CSI16:1,2010-11-07T18:00:00Z,29.4012,-89.0355,10.36,206.0,0.184,-99999.0,'11133222,11111222,99999999' 
WAVCIS,ioos:station:WAVCIS:CSI16:1,2010-11-07T19:00:00Z,29.4012,-89.0355,10.36,230.0,0.264,-99999.0,'11133222,11111222,99999999' 
WAVCIS,ioos:station:WAVCIS:CSI16:1,2010-11-07T20:00:00Z,29.4012,-89.0355,10.36,247.0,0.217,-99999.0,'11133222,11111222,99999999' 
WAVCIS,ioos:station:WAVCIS:CSI16:1,2010-11-07T21:00:00Z,29.4012,-89.0355,10.36,249.0,0.169,-99999.0,'11133222,11111222,99999999' 
WAVCIS,ioos:station:WAVCIS:CSI16:1,2010-11-07T22:00:00Z,29.4012,-89.0355,10.36,253.0,0.115,-99999.0,'11133222,11111222,99999999' 
WAVCIS,ioos:station:WAVCIS:CSI16:1,2010-11-07T23:00:00Z,29.4012,-89.0355,10.36,257.0,0.065,-99999.0,'11133222,11111222,99999999' 
WAVCIS,ioos:station:WAVCIS:CSI16:1,2010-11-08T00:00:00Z,29.4012,-89.0355,10.86,254.0,0.061,-99999.0,'11133222,11111222,99999999' 
WAVCIS,ioos:station:WAVCIS:CSI16:1,2010-11-08T01:00:00Z,29.4012,-89.0355,10.86,275.0,0.047,-99999.0,'11133222,11111222,99999999' 
WAVCIS,ioos:station:WAVCIS:CSI16:1,2010-11-08T02:00:00Z,29.4012,-89.0355,10.86,261.0,0.054,-99999.0,'11133222,11111222,99999999' 
WAVCIS,ioos:station:WAVCIS:CSI16:1,2010-11-08T03:00:00Z,29.4012,-89.0355,10.86,280.0,0.079,-99999.0,'11133222,11111222,99999999' 
WAVCIS,ioos:station:WAVCIS:CSI16:1,2010-11-08T04:00:00Z,29.4012,-89.0355,10.86,279.0,0.085,-99999.0,'11133222,11111222,99999999' 
WAVCIS,ioos:station:WAVCIS:CSI16:1,2010-11-08T05:00:00Z,29.4012,-89.0355,10.86,257.0,0.022,-99999.0,'11133222,11111222,99999999' 
WAVCIS,ioos:station:WAVCIS:CSI16:1,2010-11-08T06:00:00Z,29.4012,-89.0355,10.36,97.0,0.055,-99999.0,'11133222,11111222,99999999' 
WAVCIS,ioos:station:WAVCIS:CSI16:1,2010-11-08T07:00:00Z,29.4012,-89.0355,10.36,92.0,0.096,-99999.0,'11133222,11111222,99999999' 
WAVCIS,ioos:station:WAVCIS:CSI16:1,2010-11-08T08:00:00Z,29.4012,-89.0355,10.36,107.0,0.125,-99999.0,'11133222,11111222,99999999' 
WAVCIS,ioos:station:WAVCIS:CSI16:1,2010-11-08T09:00:00Z,29.4012,-89.0355,10.36,108.0,0.179,-99999.0,'11133222,11111222,99999999' 
WAVCIS,ioos:station:WAVCIS:CSI16:1,2010-11-08T10:00:00Z,29.4012,-89.0355,10.36,117.0,0.246,-99999.0,'11133222,11111222,99999999' 
WAVCIS,ioos:station:WAVCIS:CSI16:1,2010-11-08T11:00:00Z,29.4012,-89.0355,9.86,137.0,0.144,-99999.0,'11133222,11111222,99999999' 
WAVCIS,ioos:station:WAVCIS:CSI16:1,2010-11-08T12:00:00Z,29.4012,-89.0355,9.86,159.0,0.149,-99999.0,'11133222,11111222,99999999' 
WAVCIS,ioos:station:WAVCIS:CSI16:1,2010-11-08T13:00:00Z,29.4012,-89.0355,9.86,152.0,0.284,-99999.0,'11133222,11111222,99999999' 
WAVCIS,ioos:station:WAVCIS:CSI16:1,2010-11-08T14:00:00Z,29.4012,-89.0355,9.86,149.0,0.309,-99999.0,'11133222,11111222,99999999' 
WAVCIS,ioos:station:WAVCIS:CSI16:1,2010-11-08T15:00:00Z,29.4012,-89.0355,9.86,151.0,0.288,-99999.0,'11133222,11111222,99999999' 